Погода в Донском

Россия / Ставропольский край     45°27′17″N   41°58′32″E
темп.,
°C
ветер,
м/с
пор.,
м/с
влажн.,
%
обл.,
%
осадки,
мм/ч
давл.,
гПа
погр.,
м
5 августа, чт
чт500:00+24ю226544 0.0 101419
03:00+22ссв227133 0.5 101420
06:00+22всв36785 0.8 1015141
09:00+29в454761 0.9 1015837
12:00+34в443189 0.0 10132165
15:00+34в442997 0.1 10122450
18:00+30св234292 0.7 1011195
21:00+25св34510 0.9 101155
6 августа, пт
пт600:00+27в5133941 0.0 1011394
03:00+27в614330 0.0 1010461
06:00+26вюв615370 0.0 1010563
09:00+32вюв912270 0.0 10091116
12:00+36вюв911200 0.0 10082213
15:00+38вюв910204 0.0 10062789
18:00+37вюв810210 0.0 10052617
21:00+31вюв8152930 0.0 1005680
7 августа, сб
сб700:00+28вюв81737100 0.0 1005614
03:00+26вюв61544100 0.0 1006528
06:00+24вюв6145153 0.0 1006497
09:00+31вюв81234100 0.0 1005962
12:00+37вюв892237 0.0 10031705
15:00+39вюв672032 0.0 10022733
18:00+38вюв5620100 0.0 10022959
21:00+31ююз6936100 0.0 1005459
8 августа, вс
вс800:00+26вюв3358100 0.0 100572
03:00+25зюз3563100 0.3 1007151
06:00+22з5881100 0.9 1009187
09:00+24з236898 0.9 1010146
12:00+32з333558 0.0 10091453
15:00+34зсз463099 0.0 10092521
18:00+30с574357 0.2 1009337
21:00+25з3454100 0.3 101266
9 августа, пн
пн900:00+22з3577100 0.1 1012130
03:00+22зюз597697 0.2 1012269
06:00+22зюз48808 0.0 1012283
09:00+29з57435 0.0 1012958
12:00+34зсз67235 0.0 10111895
15:00+36зсз66175 0.0 10102443
18:00+34ссз66206 0.0 10101893
21:00+26ссз3432100 0.0 101256